Location: *
(40.1000°S, 171.5167°W)
Time: 04:27:04
(UTC+00:00)

Daily predictions for brighter satellites

Satellite Brightness Start Highest point End
(mag) Time Altitude Azimuth Time Altitude Azimuth Time Altitude Azimuth
ATLAS 3B R/B 4.1 05:49:20 10° NE 05:54:00 18° ENE 05:58:33 10° ESE
Meteor 1-22 Rocket 4.3 05:51:49 10° S 05:57:14 54° ESE 06:02:26 10° NNE
Landsat 5 3.4 05:53:59 10° NNE 05:58:11 76° ESE 06:02:19 10° S
IRIDIUM 104 4.4 05:55:44 10° S 06:01:00 62° E 06:06:12 10° NNE
USA 276 2.4 06:00:21 10° WNW 06:03:21 65° SSW 06:06:22 10° SE
FALCON 9 DEB 3.9 06:00:44 10° NNW 06:03:33 29° NE 06:06:24 10° ESE
Atlas Centaur 2 4.3 06:02:29 10° NW 06:03:54 11° NNW 06:05:23 10° N
Cosmos 1818 3.6 05:58:54 10° NNW 06:04:17 89° ENE 06:09:44 10° SSE
ATLAS 5 CENTAUR R/B 3.9 06:04:21 10° S 06:08:09 17° SSE 06:11:30 10° ESE
ASTEX 1 4.5 06:04:09 10° N 06:09:03 52° W 06:14:00 10° SSW
Cosmos 1470 2.9 06:06:04 10° S 06:10:02 56° E 06:13:56 10° NNE
IRIDIUM 114 4.3 06:04:51 10° S 06:10:11 76° E 06:15:25 10° N
Cosmos 1354 Rocket 4.3 06:11:49 10° S 06:17:01 48° ESE 06:22:06 10° NE
CZ-4 R/B 3.1 06:15:12 10° ESE 06:17:11 13° E 06:17:23 13° E
Cosmos 2333 Rocket 2.3 06:11:31 10° SSW 06:17:20 85° ESE 06:23:07 10° NNE
COSMOS 2487 4.4 06:15:52 10° NW 06:18:26 27° WSW 06:21:02 10° S
Radarsat Rocket 4.0 06:12:32 10° SSE 06:18:29 64° ENE 06:24:52 10° N
Cosmos 1486 Rocket 4.2 06:13:27 10° SSW 06:18:44 78° WNW 06:24:00 10° NNE
IRIDIUM 103 4.4 06:13:59 10° S 06:19:19 88° W 06:24:34 10° N
Cosmos 2297 Rocket 3.4 06:15:34 10° NE 06:19:31 20° E 06:23:30 10° SE
Cosmos 2219 Rocket 2.2 06:16:15 10° SSW 06:21:55 65° ESE 06:27:33 10° NNE
Cosmos 1703 Rocket 4.4 06:18:52 10° NNW 06:23:14 57° W 06:27:42 10° S
Cosmos 1092 Rocket 4.0 06:17:06 10° S 06:23:30 75° E 06:29:52 10° NNE
Lacrosse 4 Rocket 4.2 06:21:21 10° WSW 06:23:57 16° WNW 06:26:31 10° NW
H-2A R/B 4.2 06:19:55 10° S 06:24:12 29° WSW 06:28:27 10° NW
DELTA 2 R/B (1) 3.9 06:19:09 10° W 06:24:41 61° NNW 06:29:17 15° ENE
SL-08 RB Rocket 4.0 06:20:49 10° S 06:25:21 72° WSW 06:29:50 10° NNW
SL-27 R/B 3.3 06:23:50 10° NNW 06:27:01 50° WSW 06:30:15 10° S
Timation 1 Rocket 4.4 06:23:22 10° N 06:29:12 58° ENE 06:35:07 10° SSE
Cosmos 1674 2.6 06:26:26 10° N 06:30:04 59° E 06:33:45 10° SSE
Cosmos 1953 4.1 06:29:55 10° SE 06:32:20 15° ESE 06:32:25 15° ESE
CZ-4C R/B 3.0 06:30:38 10° N 06:34:05 83° WNW 06:37:39 10° SSW
Okean O Rocket 2.6 06:32:24 10° SE 06:36:06 25° E 06:38:45 15° NE
COBE Rocket 4.2 06:32:24 10° SSE 06:37:30 48° E 06:42:28 10° N
Cosmos 2237 Rocket 3.5 06:34:57 10° S 06:39:32 24° SE 06:41:48 19° E
SL-8 R/B 3.7 06:35:43 10° NW 06:40:31 67° NE 06:44:31 15° ESE
HJ-1C 4.0 06:38:21 10° SSE 06:41:14 30° E 06:41:30 30° ENE
Cosmos 2360 Rocket 3.7 06:36:30 10° SW 06:41:42 37° WNW 06:46:52 10° N
In-Cosmos 22 4.2 06:36:46 10° N 06:42:13 87° W 06:47:54 10° S
Cosmos 1300 Rocket 3.4 06:41:28 10° S 06:45:53 73° E 06:50:13 10° NNE
Cosmos 1782 Rocket 4.1 06:42:14 10° SSW 06:46:39 60° W 06:50:57 10° N
MOS 1-B 4.4 06:42:15 10° SSE 06:47:58 53° E 06:53:37 10° N
Alouette 2 Rocket 4.2 06:44:08 10° NNW 06:49:20 62° W 06:53:13 10° S
COSMOS 2428 2.7 06:43:48 10° SSW 06:49:33 72° ESE 06:53:59 17° NNE
YAOGAN 1 2.7 06:47:55 10° SSE 06:52:12 49° E 06:56:24 10° N
KORONAS-FOTON 4.2 06:48:29 10° NNW 06:52:15 63° W 06:56:05 10° S
Meteor 1-21 4.4 06:48:28 10° NNW 06:54:05 76° W 06:59:48 10° S
Okean 2 Rocket 3.6 06:49:53 10° S 06:54:06 39° ESE 06:55:22 31° ENE
SJ 16-02 1.7 06:50:45 10° SSW 06:55:11 67° WNW 06:59:35 10° N
Cosmos 1300 4.5 06:52:52 10° SSE 06:54:38 17° SE 06:54:38 17° SE
Cosmos 1241 Rocket 4.5 06:50:27 10° SSW 06:56:43 81° WNW 07:01:48 16° NNE
CZ-4C R/B 3.5 06:49:07 10° N 06:56:50 37° ENE 07:03:41 10° SE
Cosmos 1777 Rocket 3.9 06:54:52 10° SSW 07:00:14 81° ESE 07:03:54 21° NNE
Okean 2 3.4 06:56:22 10° N 07:00:30 82° W 07:04:40 10° S
GEOS 3 Rocket 4.5 06:55:25 10° NNE 07:00:34 48° WNW 07:05:43 10° SW
NOSS 0 Rocket 4.1 06:54:47 10° SSW 07:00:57 55° ESE 07:04:03 29° NE
CZ-4B R/B 3.0 06:59:57 10° SSE 07:05:20 67° ENE 07:10:36 10° N
Cosmos 374 Rocket 4.4 07:01:08 10° SSW 07:05:22 78° SE 07:06:55 39° NE
X-37B 1.8 07:05:43 10° W 07:08:17 29° NNW 07:08:17 29° NNW
Cosmos 1626 3.5 07:05:33 10° NNW 07:09:02 40° WSW 07:12:34 10° S
PSLV R/B 3.9 07:08:39 39° NE 07:10:05 70° ESE 07:14:21 10° S
NOAA 15 4.5 07:04:54 10° SSE 07:10:14 67° ENE 07:15:27 10° N
Cosmos 2279 Rocket 4.1 07:04:14 10° N 07:10:31 83° W 07:16:52 10° S
Geosat 3.9 07:08:25 28° NNE 07:11:08 85° ESE 07:16:14 10° SSW
PAYLOAD B 4.4 07:05:53 10° S 07:11:34 76° WSW 07:17:09 10° NNW
Cosmos 2180 Rocket 4.5 07:08:29 10° N 07:14:54 81° E 07:21:24 10° S
Cosmos 1271 Rocket 4.3 07:14:03 10° SSE 07:15:56 22° SE 07:15:56 22° SE
Meteor 1-16 Rocket 4.0 07:13:21 10° S 07:18:46 77° E 07:21:20 32° NNE
Lacrosse 5 rocket 2.9 07:15:48 10° W 07:19:04 30° SW 07:22:27 10° SSE
Kosmos-1675 3.8 07:14:13 10° SSW 07:19:32 87° NW 07:20:43 45° NNE
SL-16 R/B 3.9 07:15:53 10° S 07:19:38 17° SE 07:19:50 17° SE
H-2A R/B 2.1 07:19:39 42° NNE 07:21:10 86° ESE 07:25:46 10° SSW
Cosmos 2151 Rocket 3.5 07:17:06 10° S 07:21:41 72° E 07:22:25 58° NE
APEX 4.0 07:19:25 10° SSW 07:23:20 40° SE 07:23:20 40° SE
Aureole 3 Rocket 3.0 07:25:25 56° SSE 07:25:25 56° SSE 07:28:09 10° S
Meteor 2-10 Rocket 3.7 07:21:21 10° S 07:26:32 51° ESE 07:26:59 50° E
Cosmos 1908 4.2 07:24:34 10° SSW 07:28:19 45° W 07:30:10 25° NNW
Cosmos 990 Rocket 4.4 07:25:35 10° S 07:30:22 43° ESE 07:30:22 43° ESE
CZ-4B R/B 3.8 07:33:07 14° S 07:33:07 14° S 07:33:38 10° S
Sich 1 Rocket 4.2 07:31:55 10° SSW 07:36:24 56° W 07:38:11 33° NNW
Cosmos 1607 4.1 07:33:27 10° SW 07:39:49 70° WNW 07:42:06 41° N
Cosmos 1674 Rocket 3.7 07:38:37 43° NNW 07:40:00 74° W 07:44:34 10° S
IRAS Rocket 4.3 07:39:48 56° E 07:40:07 57° ESE 07:45:39 10° S
ATLAS 3B R/B 2.8 07:36:25 10° NNW 07:43:56 88° WSW 07:51:04 10° SSE
SL-14 R/B 4.3 07:45:43 33° NW 07:47:06 47° W 07:51:05 10° S
Cosmos 468 Rocket 4.1 07:48:42 63° SE 07:48:42 63° SE 07:53:17 10° SSE
Cosmos 2227 Rocket 2.1 07:49:16 68° ESE 07:49:16 68° ESE 07:54:28 10° SSE
CZ-4 R/B 2.4 07:48:27 10° S 07:52:18 45° WSW 07:53:19 36° WNW
Cosmos 1898 Rocket 4.4 07:47:22 10° S 07:51:09 37° SSE 07:51:09 37° SSE
ATLAS 5 CENTAUR R/B 1.9 07:48:18 10° SSW 07:53:25 74° SSW 07:53:25 74° SSW
Cosmos 2297 Rocket 2.8 07:57:29 10° NW 08:03:03 56° WSW 08:08:41 10° SSE
Cosmos 1980 3.7 07:57:32 10° SSW 08:03:14 74° WNW 08:03:27 73° NW
Cosmos 1953 3.9 08:04:58 10° SSW 08:08:02 35° WSW 08:08:02 35° WSW
Cosmos 1238 Rocket 4.0 08:03:51 10° S 08:08:13 52° S 08:08:13 52° S
Okean O Rocket 3.5 08:08:36 10° S 08:12:22 28° WSW 08:16:06 10° NW
Cosmos 1763 Rocket 4.3 08:14:58 25° NW 08:17:48 49° WSW 08:22:59 10° S
NOSS 3-1 (C) 4.1 08:14:20 10° NNW 08:23:42 72° ENE 08:31:41 10° SE
Cosmos 2237 Rocket 2.8 08:18:20 10° SSW 08:23:39 52° W 08:23:39 52° W
Cosmos 2219 4.4 08:42:08 38° S 08:42:08 38° S 08:45:54 10° SSE
CZ-4C R/B 3.5 08:37:05 10° NW 08:45:24 56° SW 08:52:28 10° SSE
SL-16 R/B 3.7 08:58:39 10° SSW 09:01:43 33° SSW 09:01:43 33° SSW
